Location: Borgo
(42.3939°N, 9.2791°E)
Time: 16:56:46
(UTC+00:00)

USA 234 - Pass Details

Date: 27 February 2020
Orbit: 1101 x 1106 km, 123.0° (Epoch: 06 April)

Event Time Altitude Azimuth Distance (km) Brightness Sun altitude
Exits shadow 20:42:39 33° 349° (N) 1,751 4.5 -39.0°
Drops below altitude 10° 20:46:46 10° 319° (NW) 2,966 6.1 -39.7°
Sets 20:49:23 0° 313° (NW) 3,926 7.0 -40.1°
